Time,TemperatureF,DewpointF,PressureIn,WindDirection,WindDirectionDegrees,WindSpeedMPH,WindSpeedGustMPH,Humidity,HourlyPrecipIn,Conditions,Clouds,dailyrainin,SoftwareType,DateUTC
2013-04-17 00:04:00,46.5,22.1,30.12,South,180,0.0,0.0,38,0.00,,,0.00,WUHU216HW,2013-04-17 07:04:00,
2013-04-17 00:09:00,46.5,22.1,30.12,South,180,0.0,0.0,38,0.00,,,0.00,WUHU216HW,2013-04-17 07:09:00,
2013-04-17 00:14:00,46.0,21.7,30.13,South,180,0.0,0.0,38,0.00,,,0.00,WUHU216HW,2013-04-17 07:14:00,
2013-04-17 00:19:00,46.0,21.7,30.13,South,180,0.0,0.0,38,0.00,,,0.00,WUHU216HW,2013-04-17 07:19:00,
2013-04-17 00:24:00,45.6,21.3,30.13,South,180,0.0,0.0,38,0.00,,,0.00,WUHU216HW,2013-04-17 07:24:00,
2013-04-17 00:29:00,45.5,21.8,30.13,South,180,0.0,0.0,39,0.00,,,0.00,WUHU216HW,2013-04-17 07:29:00,
2013-04-17 00:34:00,45.3,22.3,30.13,South,180,0.0,0.0,40,0.00,,,0.00,WUHU216HW,2013-04-17 07:34:00,
2013-04-17 00:39:00,44.9,22.0,30.13,South,180,0.0,0.0,40,0.00,,,0.00,WUHU216HW,2013-04-17 07:39:00,
2013-04-17 00:44:00,44.7,21.9,30.13,South,180,0.0,0.0,40,0.00,,,0.00,WUHU216HW,2013-04-17 07:44:00,
2013-04-17 00:49:00,44.6,21.5,30.14,South,180,0.0,0.0,40,0.00,,,0.00,WUHU216HW,2013-04-17 07:49:00,
2013-04-17 00:54:00,44.2,21.9,30.14,South,180,0.0,0.0,41,0.00,,,0.00,WUHU216HW,2013-04-17 07:54:00,
2013-04-17 00:59:00,44.0,21.7,30.14,South,180,0.0,0.0,41,0.00,,,0.00,WUHU216HW,2013-04-17 07:59:00,
2013-04-17 01:04:00,44.0,21.7,30.14,South,180,0.0,0.0,41,0.00,,,0.00,WUHU216HW,2013-04-17 08:04:00,
2013-04-17 01:09:00,44.0,22.3,30.14,South,180,0.0,0.0,42,0.00,,,0.00,WUHU216HW,2013-04-17 08:09:00,
2013-04-17 01:14:00,43.7,22.0,30.14,South,180,0.0,0.0,42,0.00,,,0.00,WUHU216HW,2013-04-17 08:14:00,
2013-04-17 01:19:00,43.7,22.5,30.14,SSW,203,0.0,0.0,43,0.00,,,0.00,WUHU216HW,2013-04-17 08:19:00,
2013-04-17 01:24:00,43.7,23.0,30.14,SSW,203,0.0,0.0,44,0.00,,,0.00,WUHU216HW,2013-04-17 08:24:00,
2013-04-17 01:29:00,43.5,22.9,30.14,SSW,203,0.0,0.0,44,0.00,,,0.00,WUHU216HW,2013-04-17 08:29:00,
2013-04-17 01:34:00,43.3,23.3,30.14,SSE,158,0.0,4.6,45,0.00,,,0.00,WUHU216HW,2013-04-17 08:34:00,
2013-04-17 01:39:00,43.3,22.7,30.14,SSE,158,0.0,4.6,44,0.00,,,0.00,WUHU216HW,2013-04-17 08:39:00,
2013-04-17 01:44:00,43.3,23.3,30.14,South,180,0.0,7.1,45,0.00,,,0.00,WUHU216HW,2013-04-17 08:44:00,
2013-04-17 01:49:00,43.3,23.3,30.14,SSE,158,2.9,7.1,45,0.00,,,0.00,WUHU216HW,2013-04-17 08:49:00,
2013-04-17 01:54:00,43.5,23.4,30.15,SSE,158,4.0,4.0,45,0.00,,,0.00,WUHU216HW,2013-04-17 08:54:00,
2013-04-17 01:59:00,44.0,23.4,30.14,ESE,113,6.0,6.0,44,0.00,,,0.00,WUHU216HW,2013-04-17 08:59:00,
2013-04-17 02:04:00,44.7,24.0,30.15,SE,135,4.6,6.0,44,0.00,,,0.00,WUHU216HW,2013-04-17 09:04:00,
2013-04-17 02:09:00,45.1,23.8,30.15,SE,135,4.6,6.0,43,0.00,,,0.00,WUHU216HW,2013-04-17 09:09:00,
2013-04-17 02:14:00,45.5,24.1,30.14,SE,135,5.1,5.1,43,0.00,,,0.00,WUHU216HW,2013-04-17 09:14:00,
2013-04-17 02:19:00,45.8,23.9,30.14,SE,135,4.9,5.1,42,0.00,,,0.00,WUHU216HW,2013-04-17 09:19:00,
2013-04-17 02:24:00,46.0,24.1,30.15,SSE,158,3.8,4.9,42,0.00,,,0.00,WUHU216HW,2013-04-17 09:24:00,
2013-04-17 02:29:00,46.2,23.7,30.14,SSE,158,2.2,4.9,41,0.00,,,0.00,WUHU216HW,2013-04-17 09:29:00,
2013-04-17 02:34:00,46.5,24.0,30.14,South,180,2.6,6.9,41,0.00,,,0.00,WUHU216HW,2013-04-17 09:34:00,
2013-04-17 02:39:00,46.5,24.0,30.14,SE,135,5.8,6.9,41,0.00,,,0.00,WUHU216HW,2013-04-17 09:39:00,
2013-04-17 02:44:00,46.5,23.5,30.14,ESE,113,1.1,5.8,40,0.00,,,0.00,WUHU216HW,2013-04-17 09:44:00,
2013-04-17 02:49:00,46.5,23.5,30.15,SSE,158,0.0,4.6,40,0.00,,,0.00,WUHU216HW,2013-04-17 09:49:00,
2013-04-17 02:54:00,46.5,23.5,30.14,SSE,158,0.0,4.6,40,0.00,,,0.00,WUHU216HW,2013-04-17 09:54:00,
2013-04-17 02:59:00,46.5,23.5,30.15,SSE,158,0.0,0.0,40,0.00,,,0.00,WUHU216HW,2013-04-17 09:59:00,
2013-04-17 03:04:00,46.7,23.0,30.15,SE,135,2.2,6.7,39,0.00,,,0.00,WUHU216HW,2013-04-17 10:04:00,
2013-04-17 03:09:00,46.9,23.1,30.15,SSE,158,5.1,6.7,39,0.00,,,0.00,WUHU216HW,2013-04-17 10:09:00,
2013-04-17 03:14:00,47.1,23.3,30.14,SE,135,5.8,5.8,39,0.00,,,0.00,WUHU216HW,2013-04-17 10:14:00,
2013-04-17 03:19:00,46.9,23.1,30.14,SE,135,2.0,5.8,39,0.00,,,0.00,WUHU216HW,2013-04-17 10:19:00,
2013-04-17 03:24:00,47.1,22.6,30.14,SSE,158,1.5,5.8,38,0.00,,,0.00,WUHU216HW,2013-04-17 10:24:00,
2013-04-17 03:29:00,47.1,22.6,30.14,SE,135,4.0,6.4,38,0.00,,,0.00,WUHU216HW,2013-04-17 10:29:00,
2013-04-17 03:34:00,46.9,22.5,30.14,SSE,158,2.4,6.4,38,0.00,,,0.00,WUHU216HW,2013-04-17 10:34:00,
2013-04-17 03:39:00,46.7,22.3,30.14,SSW,203,0.0,6.7,38,0.00,,,0.00,WUHU216HW,2013-04-17 10:39:00,
2013-04-17 03:44:00,46.5,22.1,30.14,South,180,0.8,6.7,38,0.00,,,0.00,WUHU216HW,2013-04-17 10:44:00,
2013-04-17 03:49:00,46.5,21.5,30.14,SSE,158,1.3,3.5,37,0.00,,,0.00,WUHU216HW,2013-04-17 10:49:00,
2013-04-17 03:54:00,46.5,21.5,30.14,SSE,158,1.7,1.7,37,0.00,,,0.00,WUHU216HW,2013-04-17 10:54:00,
2013-04-17 03:59:00,46.4,21.3,30.15,SSW,203,3.1,3.1,37,0.00,,,0.00,WUHU216HW,2013-04-17 10:59:00,
2013-04-17 04:04:00,46.4,21.3,30.15,SSW,203,3.1,3.1,37,0.00,,,0.00,WUHU216HW,2013-04-17 11:04:00,
2013-04-17 04:09:00,46.0,21.0,30.15,SE,135,1.3,3.1,37,0.00,,,0.00,WUHU216HW,2013-04-17 11:09:00,
2013-04-17 04:14:00,45.8,20.8,30.15,SE,135,1.5,1.7,37,0.00,,,0.00,WUHU216HW,2013-04-17 11:14:00,
2013-04-17 04:19:00,45.6,20.7,30.15,SSE,158,0.0,1.5,37,0.00,,,0.00,WUHU216HW,2013-04-17 11:19:00,
2013-04-17 04:24:00,45.5,20.5,30.15,SSE,158,0.0,0.0,37,0.00,,,0.00,WUHU216HW,2013-04-17 11:24:00,
2013-04-17 04:29:00,45.5,20.5,30.15,SSW,203,0.0,0.0,37,0.00,,,0.00,WUHU216HW,2013-04-17 11:29:00,
2013-04-17 04:34:00,45.5,21.2,30.15,SE,135,2.9,2.9,38,0.00,,,0.00,WUHU216HW,2013-04-17 11:34:00,
2013-04-17 04:39:00,45.3,21.0,30.15,South,180,0.8,3.8,38,0.00,,,0.00,WUHU216HW,2013-04-17 11:39:00,
2013-04-17 04:44:00,45.3,21.0,30.15,South,180,0.8,3.8,38,0.00,,,0.00,WUHU216HW,2013-04-17 11:44:00,
2013-04-17 04:50:00,45.3,21.7,30.15,South,180,2.0,3.1,39,0.00,,,0.00,WUHU216HW,2013-04-17 11:50:00,
2013-04-17 04:55:00,45.3,21.0,30.15,ESE,113,2.0,5.3,38,0.00,,,0.00,WUHU216HW,2013-04-17 11:55:00,
2013-04-17 05:00:00,45.3,21.0,30.15,SE,135,0.0,5.3,38,0.00,,,0.00,WUHU216HW,2013-04-17 12:00:00,
2013-04-17 05:05:00,45.5,21.2,30.15,SSE,158,5.1,5.1,38,0.00,,,0.00,WUHU216HW,2013-04-17 12:05:00,
2013-04-17 05:10:00,45.3,21.0,30.15,ESE,113,5.1,5.1,38,0.00,,,0.00,WUHU216HW,2013-04-17 12:10:00,
2013-04-17 05:15:00,45.3,21.0,30.15,SSE,158,2.6,5.3,38,0.00,,,0.00,WUHU216HW,2013-04-17 12:15:00,
2013-04-17 05:20:00,45.1,20.8,30.15,South,180,1.3,5.3,38,0.00,,,0.00,WUHU216HW,2013-04-17 12:20:00,
2013-04-17 05:25:00,45.1,20.8,30.15,South,180,0.8,1.3,38,0.00,,,0.00,WUHU216HW,2013-04-17 12:25:00,
2013-04-17 05:30:00,44.9,20.7,30.15,SSE,158,1.7,1.7,38,0.00,,,0.00,WUHU216HW,2013-04-17 12:30:00,
2013-04-17 05:35:00,44.9,20.7,30.16,ESE,113,0.0,6.0,38,0.00,,,0.00,WUHU216HW,2013-04-17 12:35:00,
2013-04-17 05:40:00,44.9,20.7,30.16,ESE,113,0.0,6.0,38,0.00,,,0.00,WUHU216HW,2013-04-17 12:40:00,
2013-04-17 05:45:00,44.7,20.5,30.16,ESE,113,0.0,0.0,38,0.00,,,0.00,WUHU216HW,2013-04-17 12:45:00,
2013-04-17 05:50:00,44.7,20.5,30.16,SSW,203,5.5,5.5,38,0.00,,,0.00,WUHU216HW,2013-04-17 12:50:00,
2013-04-17 05:55:00,44.7,20.5,30.17,SSE,158,2.2,5.5,38,0.00,,,0.00,WUHU216HW,2013-04-17 12:55:00,
2013-04-17 06:00:00,44.7,20.5,30.17,SSE,158,3.3,5.5,38,0.00,,,0.00,WUHU216HW,2013-04-17 13:00:00,
2013-04-17 06:05:00,44.7,20.5,30.17,SSE,158,4.4,4.4,38,0.00,,,0.00,WUHU216HW,2013-04-17 13:05:00,
2013-04-17 06:10:00,44.7,20.5,30.17,South,180,2.4,4.4,38,0.00,,,0.00,WUHU216HW,2013-04-17 13:10:00,
2013-04-17 06:15:00,44.6,20.4,30.17,ESE,113,0.0,4.4,38,0.00,,,0.00,WUHU216HW,2013-04-17 13:15:00,
2013-04-17 06:20:00,44.4,19.5,30.17,SSW,203,1.5,2.4,37,0.00,,,0.00,WUHU216HW,2013-04-17 13:20:00,
2013-04-17 06:25:00,44.6,20.4,30.17,South,180,3.1,3.1,38,0.00,,,0.00,WUHU216HW,2013-04-17 13:25:00,
2013-04-17 06:30:00,44.4,19.5,30.17,SSW,203,0.0,3.1,37,0.00,,,0.00,WUHU216HW,2013-04-17 13:30:00,
2013-04-17 06:35:00,44.7,20.5,30.18,South,180,3.5,3.5,38,0.00,,,0.00,WUHU216HW,2013-04-17 13:35:00,
2013-04-17 06:40:00,44.7,20.5,30.18,SSE,158,2.9,3.5,38,0.00,,,0.00,WUHU216HW,2013-04-17 13:40:00,
2013-04-17 06:45:00,44.6,19.7,30.18,SSE,158,2.9,3.5,37,0.00,,,0.00,WUHU216HW,2013-04-17 13:45:00,
2013-04-17 06:50:00,44.7,19.9,30.18,SSE,158,2.9,2.9,37,0.00,,,0.00,WUHU216HW,2013-04-17 13:50:00,
2013-04-17 06:55:00,44.7,19.9,30.18,SSE,158,2.9,2.9,37,0.00,,,0.00,WUHU216HW,2013-04-17 13:55:00,
2013-04-17 07:00:00,44.9,20.0,30.19,SE,135,4.0,4.0,37,0.00,,,0.00,WUHU216HW,2013-04-17 14:00:00,
2013-04-17 07:05:00,45.1,20.2,30.19,SSE,158,2.4,5.8,37,0.00,,,0.00,WUHU216HW,2013-04-17 14:05:00,
2013-04-17 07:10:00,45.3,21.0,30.19,SSE,158,2.4,5.8,38,0.00,,,0.00,WUHU216HW,2013-04-17 14:10:00,
2013-04-17 07:15:00,45.5,20.5,30.19,SSE,158,1.3,2.9,37,0.00,,,0.00,WUHU216HW,2013-04-17 14:15:00,
2013-04-17 07:20:00,45.8,20.8,30.19,SSE,158,3.5,3.5,37,0.00,,,0.00,WUHU216HW,2013-04-17 14:20:00,
2013-04-17 07:25:00,46.0,21.0,30.19,SSW,203,0.8,4.0,37,0.00,,,0.00,WUHU216HW,2013-04-17 14:25:00,
2013-04-17 07:30:00,46.5,21.5,30.19,SE,135,3.1,4.0,37,0.00,,,0.00,WUHU216HW,2013-04-17 14:30:00,
2013-04-17 07:35:00,46.9,21.8,30.19,South,180,0.0,4.0,37,0.00,,,0.00,WUHU216HW,2013-04-17 14:35:00,
2013-04-17 07:40:00,47.3,22.8,30.19,SE,135,2.6,3.1,38,0.00,,,0.00,WUHU216HW,2013-04-17 14:40:00,
2013-04-17 07:45:00,48.3,22.9,30.19,SSE,158,7.1,7.1,37,0.00,,,0.00,WUHU216HW,2013-04-17 14:45:00,
2013-04-17 07:50:00,49.1,23.7,30.20,ESE,113,6.2,9.1,37,0.00,,,0.00,WUHU216HW,2013-04-17 14:50:00,
2013-04-17 07:55:00,49.4,24.0,30.20,SSE,158,3.1,9.1,37,0.00,,,0.00,WUHU216HW,2013-04-17 14:55:00,
2013-04-17 08:00:00,50.1,24.0,30.20,South,180,2.6,6.4,36,0.00,,,0.00,WUHU216HW,2013-04-17 15:00:00,
2013-04-17 08:05:00,50.7,24.5,30.20,WSW,248,2.9,3.1,36,0.00,,,0.00,WUHU216HW,2013-04-17 15:05:00,
2013-04-17 08:10:00,50.9,24.6,30.20,WSW,248,2.2,6.7,36,0.00,,,0.00,WUHU216HW,2013-04-17 15:10:00,
2013-04-17 08:15:00,51.4,23.7,30.20,WSW,248,5.8,6.7,34,0.00,,,0.00,WUHU216HW,2013-04-17 15:15:00,
2013-04-17 08:20:00,51.9,24.2,30.20,WSW,248,0.0,6.4,34,0.00,,,0.00,WUHU216HW,2013-04-17 15:20:00,
2013-04-17 08:25:00,52.1,24.4,30.20,WSW,248,7.8,7.8,34,0.00,,,0.00,WUHU216HW,2013-04-17 15:25:00,
2013-04-17 08:30:00,52.7,24.9,30.20,WSW,248,2.9,7.8,34,0.00,,,0.00,WUHU216HW,2013-04-17 15:30:00,
2013-04-17 08:35:00,52.7,24.9,30.20,WSW,248,6.4,6.4,34,0.00,,,0.00,WUHU216HW,2013-04-17 15:35:00,
2013-04-17 08:40:00,53.2,25.4,30.20,WSW,248,5.1,6.4,34,0.00,,,0.00,WUHU216HW,2013-04-17 15:40:00,
2013-04-17 08:45:00,53.7,25.8,30.20,WSW,248,3.8,6.4,34,0.00,,,0.00,WUHU216HW,2013-04-17 15:45:00,
2013-04-17 08:50:00,53.7,25.8,30.20,WSW,248,3.1,3.8,34,0.00,,,0.00,WUHU216HW,2013-04-17 15:50:00,
2013-04-17 08:55:00,54.3,26.3,30.20,WSW,248,5.3,6.2,34,0.00,,,0.00,WUHU216HW,2013-04-17 15:55:00,
2013-04-17 09:00:00,54.6,26.6,30.20,WSW,248,0.0,6.2,34,0.00,,,0.00,WUHU216HW,2013-04-17 16:00:00,
2013-04-17 09:05:00,54.8,26.7,30.20,WSW,248,5.8,8.0,34,0.00,,,0.00,WUHU216HW,2013-04-17 16:05:00,
2013-04-17 09:10:00,55.4,26.5,30.20,WSW,248,3.5,8.0,33,0.00,,,0.00,WUHU216HW,2013-04-17 16:10:00,
2013-04-17 09:15:00,55.9,25.6,30.20,WSW,248,7.6,7.6,31,0.00,,,0.00,WUHU216HW,2013-04-17 16:15:00,
2013-04-17 09:20:00,56.1,25.7,30.20,WSW,248,5.5,7.6,31,0.00,,,0.00,WUHU216HW,2013-04-17 16:20:00,
2013-04-17 09:25:00,56.4,25.4,30.20,ENE,68,2.4,7.6,30,0.00,,,0.00,WUHU216HW,2013-04-17 16:25:00,
2013-04-17 09:30:00,56.8,25.7,30.20,WSW,248,9.6,9.6,30,0.00,,,0.00,WUHU216HW,2013-04-17 16:30:00,
2013-04-17 09:35:00,57.2,25.1,30.20,WSW,248,6.2,9.6,29,0.00,,,0.00,WUHU216HW,2013-04-17 16:35:00,
2013-04-17 09:40:00,57.5,23.5,30.21,WSW,248,8.5,15.2,27,0.00,,,0.00,WUHU216HW,2013-04-17 16:40:00,
2013-04-17 09:45:00,57.5,22.5,30.20,WSW,248,6.0,15.2,26,0.00,,,0.00,WUHU216HW,2013-04-17 16:45:00,
2013-04-17 09:50:00,58.1,23.0,30.21,WSW,248,6.0,8.5,26,0.00,,,0.00,WUHU216HW,2013-04-17 16:50:00,
2013-04-17 09:55:00,58.2,21.2,30.20,ENE,68,2.2,6.0,24,0.00,,,0.00,WUHU216HW,2013-04-17 16:55:00,
2013-04-17 10:00:00,58.4,20.4,30.20,WSW,248,6.4,6.4,23,0.00,,,0.00,WUHU216HW,2013-04-17 17:00:00,
2013-04-17 10:05:00,58.6,20.5,30.21,WSW,248,6.4,6.4,23,0.00,,,0.00,WUHU216HW,2013-04-17 17:05:00,
2013-04-17 10:10:00,59.0,20.8,30.21,WSW,248,13.4,13.4,23,0.00,,,0.00,WUHU216HW,2013-04-17 17:10:00,
2013-04-17 10:15:00,59.3,20.2,30.20,WSW,248,11.6,13.4,22,0.00,,,0.00,WUHU216HW,2013-04-17 17:15:00,
2013-04-17 10:20:00,59.7,17.3,30.21,WSW,248,2.4,13.4,19,0.00,,,0.00,WUHU216HW,2013-04-17 17:20:00,
2013-04-17 10:25:00,60.2,21.0,30.21,WSW,248,7.6,7.6,22,0.00,,,0.00,WUHU216HW,2013-04-17 17:25:00,
2013-04-17 10:30:00,60.9,21.6,30.20,WSW,248,3.3,7.6,22,0.00,,,0.00,WUHU216HW,2013-04-17 17:30:00,
2013-04-17 10:35:00,60.9,21.6,30.21,WSW,248,5.8,7.6,22,0.00,,,0.00,WUHU216HW,2013-04-17 17:35:00,
2013-04-17 10:40:00,62.7,22.1,30.21,WSW,248,5.8,5.8,21,0.00,,,0.00,WUHU216HW,2013-04-17 17:40:00,
2013-04-17 10:45:00,63.3,20.3,30.21,WSW,248,7.6,7.6,19,0.00,,,0.00,WUHU216HW,2013-04-17 17:45:00,
2013-04-17 10:50:00,64.0,23.1,30.21,WSW,248,0.0,7.6,21,0.00,,,0.00,WUHU216HW,2013-04-17 17:50:00,
2013-04-17 10:55:00,64.9,23.8,30.20,WSW,248,2.6,9.8,21,0.00,,,0.00,WUHU216HW,2013-04-17 17:55:00,
2013-04-17 11:00:00,65.3,24.1,30.20,SW,225,0.0,9.8,21,0.00,,,0.00,WUHU216HW,2013-04-17 18:00:00,
2013-04-17 11:05:00,65.3,21.9,30.20,SE,135,5.8,7.8,19,0.00,,,0.00,WUHU216HW,2013-04-17 18:05:00,
2013-04-17 11:10:00,65.6,22.2,30.20,SSW,203,0.0,6.4,19,0.00,,,0.00,WUHU216HW,2013-04-17 18:10:00,
2013-04-17 11:15:00,65.8,23.6,30.20,SSW,203,3.3,6.4,20,0.00,,,0.00,WUHU216HW,2013-04-17 18:15:00,
2013-04-17 11:20:00,66.3,22.7,30.20,SSE,158,5.8,5.8,19,0.00,,,0.00,WUHU216HW,2013-04-17 18:20:00,
2013-04-17 11:26:00,66.5,22.9,30.20,SSE,158,1.3,5.8,19,0.00,,,0.00,WUHU216HW,2013-04-17 18:26:00,
2013-04-17 11:31:00,67.1,23.4,30.20,SE,135,4.6,5.8,19,0.00,,,0.00,WUHU216HW,2013-04-17 18:31:00,
2013-04-17 11:36:00,67.1,23.4,30.20,ESE,113,5.3,5.8,19,0.00,,,0.00,WUHU216HW,2013-04-17 18:36:00,
2013-04-17 11:41:00,67.6,23.8,30.20,ESE,113,5.3,5.3,19,0.00,,,0.00,WUHU216HW,2013-04-17 18:41:00,
2013-04-17 11:46:00,67.6,23.8,30.20,ESE,113,2.0,5.3,19,0.00,,,0.00,WUHU216HW,2013-04-17 18:46:00,
2013-04-17 11:51:00,67.8,24.0,30.20,SSE,158,7.8,7.8,19,0.00,,,0.00,WUHU216HW,2013-04-17 18:51:00,
2013-04-17 11:56:00,68.1,24.2,30.20,South,180,8.7,8.7,19,0.00,,,0.00,WUHU216HW,2013-04-17 18:56:00,
2013-04-17 12:01:00,68.5,24.6,30.20,SE,135,3.1,8.7,19,0.00,,,0.00,WUHU216HW,2013-04-17 19:01:00,
2013-04-17 12:06:00,68.9,24.9,30.20,South,180,3.1,4.0,19,0.00,,,0.00,WUHU216HW,2013-04-17 19:06:00,
2013-04-17 12:11:00,68.9,24.9,30.20,SE,135,6.0,7.3,19,0.00,,,0.00,WUHU216HW,2013-04-17 19:11:00,
2013-04-17 12:16:00,68.9,24.9,30.20,SSW,203,0.0,7.3,19,0.00,,,0.00,WUHU216HW,2013-04-17 19:16:00,
2013-04-17 12:21:00,69.0,25.0,30.20,ENE,68,3.1,4.2,19,0.00,,,0.00,WUHU216HW,2013-04-17 19:21:00,
2013-04-17 12:26:00,69.2,25.1,30.20,NE,45,0.0,3.1,19,0.00,,,0.00,WUHU216HW,2013-04-17 19:26:00,
2013-04-17 12:31:00,69.4,25.3,30.20,NE,45,0.0,3.1,19,0.00,,,0.00,WUHU216HW,2013-04-17 19:31:00,
2013-04-17 12:36:00,69.4,25.3,30.20,ESE,113,5.3,5.3,19,0.00,,,0.00,WUHU216HW,2013-04-17 19:36:00,
2013-04-17 12:41:00,69.8,25.6,30.20,NW,315,1.1,5.3,19,0.00,,,0.00,WUHU216HW,2013-04-17 19:41:00,
2013-04-17 12:46:00,69.8,25.6,30.20,ESE,113,5.3,5.8,19,0.00,,,0.00,WUHU216HW,2013-04-17 19:46:00,
2013-04-17 12:51:00,69.9,25.7,30.19,SSE,158,12.7,12.7,19,0.00,,,0.00,WUHU216HW,2013-04-17 19:51:00,
2013-04-17 12:56:00,69.9,25.7,30.19,ESE,113,0.0,12.7,19,0.00,,,0.00,WUHU216HW,2013-04-17 19:56:00,
2013-04-17 13:01:00,70.1,25.9,30.19,SE,135,6.0,12.7,19,0.00,,,0.00,WUHU216HW,2013-04-17 20:01:00,
2013-04-17 13:06:00,70.3,26.0,30.19,ENE,68,0.2,6.2,19,0.00,,,0.00,WUHU216HW,2013-04-17 20:06:00,
2013-04-17 13:11:00,70.3,26.0,30.18,North,0,0.0,6.0,19,0.00,,,0.00,WUHU216HW,2013-04-17 20:11:00,
2013-04-17 13:16:00,70.5,26.2,30.18,East,90,6.2,6.2,19,0.00,,,0.00,WUHU216HW,2013-04-17 20:16:00,
2013-04-17 13:21:00,70.7,26.4,30.18,SE,135,2.0,6.2,19,0.00,,,0.00,WUHU216HW,2013-04-17 20:21:00,
2013-04-17 13:26:00,71.2,26.8,30.18,NNW,338,5.5,6.2,19,0.00,,,0.00,WUHU216HW,2013-04-17 20:26:00,
2013-04-17 13:31:00,71.4,26.9,30.18,East,90,2.4,5.5,19,0.00,,,0.00,WUHU216HW,2013-04-17 20:31:00,
2013-04-17 13:36:00,71.4,26.9,30.18,South,180,6.4,6.4,19,0.00,,,0.00,WUHU216HW,2013-04-17 20:36:00,
2013-04-17 13:41:00,71.4,26.9,30.17,SE,135,3.1,6.4,19,0.00,,,0.00,WUHU216HW,2013-04-17 20:41:00,
2013-04-17 13:46:00,71.9,27.4,30.17,South,180,3.1,6.4,19,0.00,,,0.00,WUHU216HW,2013-04-17 20:46:00,
2013-04-17 13:51:00,72.3,27.7,30.17,North,0,6.2,6.2,19,0.00,,,0.00,WUHU216HW,2013-04-17 20:51:00,
2013-04-17 13:57:00,72.5,27.8,30.17,NW,315,0.0,6.2,19,0.00,,,0.00,WUHU216HW,2013-04-17 20:57:00,
2013-04-17 14:02:00,73.0,28.3,30.17,SE,135,1.3,6.4,19,0.00,,,0.00,WUHU216HW,2013-04-17 21:02:00,
2013-04-17 14:07:00,73.4,28.6,30.17,SSE,158,11.4,11.4,19,0.00,,,0.00,WUHU216HW,2013-04-17 21:07:00,
2013-04-17 14:12:00,73.5,28.7,30.16,WNW,293,4.9,11.4,19,0.00,,,0.00,WUHU216HW,2013-04-17 21:12:00,
2013-04-17 14:17:00,73.7,28.8,30.17,ENE,68,2.2,11.4,19,0.00,,,0.00,WUHU216HW,2013-04-17 21:17:00,
2013-04-17 14:22:00,74.4,29.4,30.17,SE,135,9.6,9.6,19,0.00,,,0.00,WUHU216HW,2013-04-17 21:22:00,
2013-04-17 14:27:00,75.2,30.1,30.16,SSE,158,0.0,9.6,19,0.00,,,0.00,WUHU216HW,2013-04-17 21:27:00,
2013-04-17 14:32:00,75.2,30.1,30.16,North,0,4.6,9.6,19,0.00,,,0.00,WUHU216HW,2013-04-17 21:32:00,
2013-04-17 14:37:00,75.5,30.3,30.16,South,180,0.0,4.6,19,0.00,,,0.00,WUHU216HW,2013-04-17 21:37:00,
2013-04-17 14:42:00,76.1,30.8,30.16,SSE,158,5.1,5.1,19,0.00,,,0.00,WUHU216HW,2013-04-17 21:42:00,
2013-04-17 14:47:00,77.1,31.6,30.16,NE,45,0.0,6.2,19,0.00,,,0.00,WUHU216HW,2013-04-17 21:47:00,
2013-04-17 14:52:00,78.0,32.4,30.16,South,180,7.8,7.8,19,0.00,,,0.00,WUHU216HW,2013-04-17 21:52:00,
2013-04-17 14:57:00,78.6,32.9,30.15,ESE,113,0.0,7.8,19,0.00,,,0.00,WUHU216HW,2013-04-17 21:57:00,
2013-04-17 15:02:00,78.9,33.1,30.15,SE,135,8.5,8.5,19,0.00,,,0.00,WUHU216HW,2013-04-17 22:02:00,
2013-04-17 15:07:00,79.5,33.6,30.15,NE,45,0.0,8.5,19,0.00,,,0.00,WUHU216HW,2013-04-17 22:07:00,
2013-04-17 15:12:00,80.2,34.2,30.15,SSW,203,5.5,6.0,19,0.00,,,0.00,WUHU216HW,2013-04-17 22:12:00,
2013-04-17 15:17:00,80.7,34.6,30.15,SE,135,5.5,6.0,19,0.00,,,0.00,WUHU216HW,2013-04-17 22:17:00,
2013-04-17 15:22:00,81.5,35.2,30.15,SE,135,5.3,5.8,19,0.00,,,0.00,WUHU216HW,2013-04-17 22:22:00,
2013-04-17 15:27:00,81.6,35.3,30.15,SSE,158,0.0,5.8,19,0.00,,,0.00,WUHU216HW,2013-04-17 22:27:00,
2013-04-17 15:32:00,82.0,35.7,30.15,NE,45,1.3,5.8,19,0.00,,,0.00,WUHU216HW,2013-04-17 22:32:00,
2013-04-17 15:37:00,82.5,36.1,30.15,ESE,113,12.3,12.3,19,0.00,,,0.00,WUHU216HW,2013-04-17 22:37:00,
2013-04-17 15:42:00,82.0,35.7,30.15,SSE,158,2.0,12.3,19,0.00,,,0.00,WUHU216HW,2013-04-17 22:42:00,
2013-04-17 15:47:00,82.5,36.1,30.15,ENE,68,2.9,12.3,19,0.00,,,0.00,WUHU216HW,2013-04-17 22:47:00,
2013-04-17 15:52:00,82.2,35.8,30.15,SE,135,7.3,7.3,19,0.00,,,0.00,WUHU216HW,2013-04-17 22:52:00,
2013-04-17 15:57:00,81.6,35.3,30.14,North,0,0.0,7.3,19,0.00,,,0.00,WUHU216HW,2013-04-17 22:57:00,
2013-04-17 16:02:00,80.7,34.6,30.14,SSE,158,4.6,7.3,19,0.00,,,0.00,WUHU216HW,2013-04-17 23:02:00,
2013-04-17 16:07:00,80.6,34.5,30.14,SSE,158,6.9,6.9,19,0.00,,,0.00,WUHU216HW,2013-04-17 23:07:00,
2013-04-17 16:12:00,80.2,34.2,30.14,NNE,23,0.0,6.9,19,0.00,,,0.00,WUHU216HW,2013-04-17 23:12:00,
2013-04-17 16:17:00,79.5,33.6,30.14,SSE,158,1.7,6.9,19,0.00,,,0.00,WUHU216HW,2013-04-17 23:17:00,
2013-04-17 16:22:00,78.6,32.9,30.14,SSE,158,3.1,5.8,19,0.00,,,0.00,WUHU216HW,2013-04-17 23:22:00,
2013-04-17 16:27:00,77.9,32.3,30.14,SSE,158,8.2,8.2,19,0.00,,,0.00,WUHU216HW,2013-04-17 23:27:00,
2013-04-17 16:32:00,76.8,31.4,30.14,South,180,3.1,10.5,19,0.00,,,0.00,WUHU216HW,2013-04-17 23:32:00,
2013-04-17 16:37:00,76.6,31.2,30.13,SE,135,1.7,11.4,19,0.00,,,0.00,WUHU216HW,2013-04-17 23:37:00,
2013-04-17 16:42:00,76.4,31.1,30.13,ENE,68,0.0,11.4,19,0.00,,,0.00,WUHU216HW,2013-04-17 23:42:00,
2013-04-17 16:47:00,75.9,30.6,30.13,East,90,2.2,9.6,19,0.00,,,0.00,WUHU216HW,2013-04-17 23:47:00,
2013-04-17 16:52:00,75.2,30.1,30.13,SSW,203,3.1,6.2,19,0.00,,,0.00,WUHU216HW,2013-04-17 23:52:00,
2013-04-17 16:57:00,74.3,29.3,30.13,SE,135,2.2,5.8,19,0.00,,,0.00,WUHU216HW,2013-04-17 23:57:00,
2013-04-17 17:02:00,73.0,28.3,30.14,ESE,113,8.2,8.2,19,0.00,,,0.00,WUHU216HW,2013-04-18 00:02:00,
2013-04-17 17:07:00,72.3,27.7,30.13,SSE,158,6.2,8.2,19,0.00,,,0.00,WUHU216HW,2013-04-18 00:07:00,
2013-04-17 17:12:00,71.6,27.1,30.13,SSE,158,1.5,8.2,19,0.00,,,0.00,WUHU216HW,2013-04-18 00:12:00,
2013-04-17 17:17:00,70.7,26.4,30.13,ESE,113,7.8,7.8,19,0.00,,,0.00,WUHU216HW,2013-04-18 00:17:00,
2013-04-17 17:22:00,70.5,26.2,30.13,South,180,0.0,7.8,19,0.00,,,0.00,WUHU216HW,2013-04-18 00:22:00,
2013-04-17 17:27:00,70.1,25.9,30.13,South,180,5.8,7.8,19,0.00,,,0.00,WUHU216HW,2013-04-18 00:27:00,
2013-04-17 17:32:00,69.9,25.7,30.13,East,90,5.1,5.8,19,0.00,,,0.00,WUHU216HW,2013-04-18 00:32:00,
2013-04-17 17:37:00,69.4,25.3,30.13,ENE,68,0.0,5.1,19,0.00,,,0.00,WUHU216HW,2013-04-18 00:37:00,
2013-04-17 17:42:00,69.2,25.1,30.13,South,180,4.0,5.3,19,0.00,,,0.00,WUHU216HW,2013-04-18 00:42:00,
2013-04-17 17:47:00,68.9,24.9,30.13,SE,135,2.4,5.3,19,0.00,,,0.00,WUHU216HW,2013-04-18 00:47:00,
2013-04-17 17:52:00,68.7,24.7,30.13,SSE,158,2.9,3.1,19,0.00,,,0.00,WUHU216HW,2013-04-18 00:52:00,
2013-04-17 17:57:00,68.3,24.4,30.13,SSE,158,0.0,4.0,19,0.00,,,0.00,WUHU216HW,2013-04-18 00:57:00,
2013-04-17 18:02:00,68.1,24.2,30.13,South,180,0.0,7.3,19,0.00,,,0.00,WUHU216HW,2013-04-18 01:02:00,
2013-04-17 18:07:00,67.8,24.0,30.13,SSE,158,1.7,7.3,19,0.00,,,0.00,WUHU216HW,2013-04-18 01:07:00,
2013-04-17 18:12:00,67.6,23.8,30.13,North,0,0.0,3.5,19,0.00,,,0.00,WUHU216HW,2013-04-18 01:12:00,
2013-04-17 18:17:00,67.4,23.6,30.13,NW,315,0.0,3.5,19,0.00,,,0.00,WUHU216HW,2013-04-18 01:17:00,
2013-04-17 18:22:00,67.4,23.6,30.13,SE,135,3.3,3.3,19,0.00,,,0.00,WUHU216HW,2013-04-18 01:22:00,
2013-04-17 18:27:00,67.2,23.5,30.14,SSE,158,6.4,6.4,19,0.00,,,0.00,WUHU216HW,2013-04-18 01:27:00,
2013-04-17 18:32:00,66.9,23.2,30.14,SSE,158,6.7,6.7,19,0.00,,,0.00,WUHU216HW,2013-04-18 01:32:00,
2013-04-17 18:37:00,66.9,23.2,30.14,ESE,113,4.9,6.7,19,0.00,,,0.00,WUHU216HW,2013-04-18 01:37:00,
2013-04-17 18:42:00,66.5,22.9,30.14,East,90,0.0,6.7,19,0.00,,,0.00,WUHU216HW,2013-04-18 01:42:00,
2013-04-17 18:47:00,66.5,22.9,30.14,South,180,0.0,6.2,19,0.00,,,0.00,WUHU216HW,2013-04-18 01:47:00,
2013-04-17 18:52:00,66.2,22.7,30.14,ESE,113,4.9,6.7,19,0.00,,,0.00,WUHU216HW,2013-04-18 01:52:00,
2013-04-17 18:57:00,65.8,22.3,30.13,East,90,0.0,6.7,19,0.00,,,0.00,WUHU216HW,2013-04-18 01:57:00,
2013-04-17 19:02:00,65.6,22.2,30.14,South,180,0.0,2.4,19,0.00,,,0.00,WUHU216HW,2013-04-18 02:02:00,
2013-04-17 19:07:00,65.6,22.2,30.14,SSE,158,4.0,4.0,19,0.00,,,0.00,WUHU216HW,2013-04-18 02:07:00,
2013-04-17 19:12:00,65.3,21.9,30.14,ESE,113,0.0,4.0,19,0.00,,,0.00,WUHU216HW,2013-04-18 02:12:00,
2013-04-17 19:17:00,65.1,21.8,30.13,SE,135,1.5,2.9,19,0.00,,,0.00,WUHU216HW,2013-04-18 02:17:00,
2013-04-17 19:22:00,64.7,21.4,30.13,ESE,113,2.9,2.9,19,0.00,,,0.00,WUHU216HW,2013-04-18 02:22:00,
2013-04-17 19:27:00,64.4,21.2,30.13,East,90,2.2,5.8,19,0.00,,,0.00,WUHU216HW,2013-04-18 02:27:00,
2013-04-17 19:32:00,64.0,20.8,30.13,SE,135,0.0,5.8,19,0.00,,,0.00,WUHU216HW,2013-04-18 02:32:00,
2013-04-17 19:37:00,63.8,20.7,30.13,SE,135,5.8,5.8,19,0.00,,,0.00,WUHU216HW,2013-04-18 02:37:00,
2013-04-17 19:42:00,63.3,20.3,30.13,SSW,203,5.8,5.8,19,0.00,,,0.00,WUHU216HW,2013-04-18 02:42:00,
2013-04-17 19:47:00,62.9,19.9,30.14,SSE,158,4.9,5.8,19,0.00,,,0.00,WUHU216HW,2013-04-18 02:47:00,
2013-04-17 19:52:00,62.6,19.7,30.13,SE,135,1.5,4.9,19,0.00,,,0.00,WUHU216HW,2013-04-18 02:52:00,
2013-04-17 19:57:00,62.4,19.5,30.14,SE,135,2.0,4.9,19,0.00,,,0.00,WUHU216HW,2013-04-18 02:57:00,
2013-04-17 20:02:00,62.2,19.4,30.14,ESE,113,3.8,4.4,19,0.00,,,0.00,WUHU216HW,2013-04-18 03:02:00,
2013-04-17 20:07:00,61.8,21.3,30.14,South,180,6.2,6.2,21,0.00,,,0.00,WUHU216HW,2013-04-18 03:07:00,
2013-04-17 20:12:00,61.7,18.9,30.14,SSE,158,0.4,6.2,19,0.00,,,0.00,WUHU216HW,2013-04-18 03:12:00,
2013-04-17 20:17:00,61.5,22.0,30.14,SSE,158,2.9,6.2,22,0.00,,,0.00,WUHU216HW,2013-04-18 03:17:00,
2013-04-17 20:22:00,61.1,21.7,30.15,SE,135,0.0,5.8,22,0.00,,,0.00,WUHU216HW,2013-04-18 03:22:00,
2013-04-17 20:27:00,60.9,21.6,30.15,SE,135,1.1,2.9,22,0.00,,,0.00,WUHU216HW,2013-04-18 03:27:00,
2013-04-17 20:32:00,60.9,21.6,30.15,South,180,2.4,4.9,22,0.00,,,0.00,WUHU216HW,2013-04-18 03:32:00,
2013-04-17 20:37:00,60.9,21.6,30.15,SE,135,0.0,6.9,22,0.00,,,0.00,WUHU216HW,2013-04-18 03:37:00,
2013-04-17 20:43:00,60.4,21.1,30.15,SE,135,5.5,6.9,22,0.00,,,0.00,WUHU216HW,2013-04-18 03:43:00,
2013-04-17 20:48:00,60.4,21.1,30.16,SSE,158,3.3,5.5,22,0.00,,,0.00,WUHU216HW,2013-04-18 03:48:00,
2013-04-17 20:53:00,60.2,21.0,30.16,South,180,7.3,7.8,22,0.00,,,0.00,WUHU216HW,2013-04-18 03:53:00,
2013-04-17 20:58:00,60.2,21.0,30.16,SSE,158,2.6,7.8,22,0.00,,,0.00,WUHU216HW,2013-04-18 03:58:00,
2013-04-17 21:03:00,59.9,20.6,30.16,SSE,158,5.5,7.3,22,0.00,,,0.00,WUHU216HW,2013-04-18 04:03:00,
2013-04-17 21:08:00,59.7,20.5,30.16,East,90,0.0,5.5,22,0.00,,,0.00,WUHU216HW,2013-04-18 04:08:00,
2013-04-17 21:13:00,59.7,21.4,30.17,SE,135,1.7,5.5,23,0.00,,,0.00,WUHU216HW,2013-04-18 04:13:00,
2013-04-17 21:18:00,59.3,21.1,30.16,SE,135,0.0,2.6,23,0.00,,,0.00,WUHU216HW,2013-04-18 04:18:00,
2013-04-17 21:23:00,59.1,21.0,30.16,SE,135,0.0,0.0,23,0.00,,,0.00,WUHU216HW,2013-04-18 04:23:00,
2013-04-17 21:28:00,58.8,20.7,30.16,SE,135,0.0,0.0,23,0.00,,,0.00,WUHU216HW,2013-04-18 04:28:00,
2013-04-17 21:33:00,58.4,20.4,30.17,South,180,0.0,0.0,23,0.00,,,0.00,WUHU216HW,2013-04-18 04:33:00,
2013-04-17 21:38:00,58.4,21.3,30.17,SSE,158,0.0,0.0,24,0.00,,,0.00,WUHU216HW,2013-04-18 04:38:00,
2013-04-17 21:43:00,58.1,20.1,30.17,South,180,0.0,0.0,23,0.00,,,0.00,WUHU216HW,2013-04-18 04:43:00,
2013-04-17 21:48:00,57.9,20.9,30.17,South,180,0.0,0.0,24,0.00,,,0.00,WUHU216HW,2013-04-18 04:48:00,
2013-04-17 21:53:00,57.5,20.6,30.18,South,180,0.0,0.0,24,0.00,,,0.00,WUHU216HW,2013-04-18 04:53:00,
2013-04-17 21:58:00,57.3,20.4,30.18,South,180,0.0,0.0,24,0.00,,,0.00,WUHU216HW,2013-04-18 04:58:00,
2013-04-17 22:03:00,57.0,20.1,30.18,South,180,0.0,0.0,24,0.00,,,0.00,WUHU216HW,2013-04-18 05:03:00,
2013-04-17 22:08:00,56.6,19.8,30.18,South,180,0.0,0.0,24,0.00,,,0.00,WUHU216HW,2013-04-18 05:08:00,
2013-04-17 22:13:00,56.3,19.5,30.18,South,180,0.0,0.0,24,0.00,,,0.00,WUHU216HW,2013-04-18 05:13:00,
2013-04-17 22:18:00,56.3,19.5,30.18,South,180,0.0,0.0,24,0.00,,,0.00,WUHU216HW,2013-04-18 05:18:00,
2013-04-17 22:23:00,55.7,21.0,30.18,South,180,0.0,0.0,26,0.00,,,0.00,WUHU216HW,2013-04-18 05:23:00,
2013-04-17 22:28:00,55.4,20.8,30.18,SSE,158,0.0,0.0,26,0.00,,,0.00,WUHU216HW,2013-04-18 05:28:00,
2013-04-17 22:33:00,55.0,20.3,30.18,SSE,158,0.0,0.0,26,0.00,,,0.00,WUHU216HW,2013-04-18 05:33:00,
2013-04-17 22:38:00,55.0,20.3,30.18,SSE,158,0.0,0.0,26,0.00,,,0.00,WUHU216HW,2013-04-18 05:38:00,
2013-04-17 22:43:00,54.8,20.2,30.17,SSE,158,0.0,0.0,26,0.00,,,0.00,WUHU216HW,2013-04-18 05:43:00,
2013-04-17 22:48:00,54.5,19.9,30.17,SSE,158,0.0,0.0,26,0.00,,,0.00,WUHU216HW,2013-04-18 05:48:00,
2013-04-17 22:53:00,54.3,20.7,30.17,SSE,158,0.0,0.0,27,0.00,,,0.00,WUHU216HW,2013-04-18 05:53:00,
2013-04-17 22:58:00,53.9,21.3,30.18,SSE,158,0.0,0.0,28,0.00,,,0.00,WUHU216HW,2013-04-18 05:58:00,
2013-04-17 23:03:00,53.7,21.2,30.17,SSE,158,0.0,0.0,28,0.00,,,0.00,WUHU216HW,2013-04-18 06:03:00,
2013-04-17 23:08:00,53.2,20.7,30.17,SSE,158,0.0,0.0,28,0.00,,,0.00,WUHU216HW,2013-04-18 06:08:00,
2013-04-17 23:13:00,53.2,20.7,30.17,SSE,158,0.0,0.0,28,0.00,,,0.00,WUHU216HW,2013-04-18 06:13:00,
2013-04-17 23:18:00,52.7,21.2,30.17,SSE,158,0.0,0.0,29,0.00,,,0.00,WUHU216HW,2013-04-18 06:18:00,
2013-04-17 23:23:00,52.5,21.0,30.18,SSE,158,0.0,0.0,29,0.00,,,0.00,WUHU216HW,2013-04-18 06:23:00,
2013-04-17 23:28:00,52.1,21.7,30.18,SSE,158,0.0,0.0,30,0.00,,,0.00,WUHU216HW,2013-04-18 06:28:00,
2013-04-17 23:33:00,51.9,21.5,30.18,SSE,158,0.0,0.0,30,0.00,,,0.00,WUHU216HW,2013-04-18 06:33:00,
2013-04-17 23:38:00,51.6,21.9,30.18,SSE,158,0.0,0.0,31,0.00,,,0.00,WUHU216HW,2013-04-18 06:38:00,
2013-04-17 23:43:00,51.2,22.2,30.18,SSE,158,0.0,0.0,32,0.00,,,0.00,WUHU216HW,2013-04-18 06:43:00,
2013-04-17 23:48:00,51.0,23.4,30.17,SSE,158,0.0,0.0,34,0.00,,,0.00,WUHU216HW,2013-04-18 06:48:00,
2013-04-17 23:53:00,50.9,23.3,30.17,SSE,158,0.0,0.0,34,0.00,,,0.00,WUHU216HW,2013-04-18 06:53:00,
2013-04-17 23:58:00,50.7,23.8,30.17,SSE,158,0.0,0.0,35,0.00,,,0.00,WUHU216HW,2013-04-18 06:58:00,